COSMOS 2251 DEB, 35594

Orbit data source: Space-Track

COSMOS 2251 DEB, 35594 is space debris in LEO originally from a launch on Wed, 16 Jun 1993 UTC launched from the Plesetsk Missile And Space Complex (PKMTR). The debris from Iridium 33, an American commercial communications satellite, has been tracked extensively since its accidental collision with the defunct Russian satellite Cosmos 2251 in 2009. This event, occurring at high speed in low Earth orbit (LEO), generated thousands of pieces of space debris, significantly increasing the risk of further collisions. The Iridium 33 debris cloud has impacted space traffic management and orbital debris mitigation strategies, making it a subject of ongoing study in space situational awareness.

Loading next visibility...
Identifier
35594, 1993-036AMM
Orbit
LEO
Country
Flag of CISCIS
Related business
Manufacturer
Unknown
Mission
Spacecraft
Bus & Motor
Unknown
Mass
Unknown
Launch date (UTC)
1993-06-16 (33 years ago)
Launch vehicle
Unknown
Launch site
Plesetsk Missile And Space Complex (PKMTR)
Object type
Payload
Rocket body
Debris
Shape & HBR
Unknown shape, 0.1 m
Radar Cross Section
Small (<0.1 m²)

Expand to show TLE details & history
Last TLE update: 3 days ago

TLE from 3 days ago
0 COSMOS 2251 DEB
1 35594U 93036AMM 26031.33117180  .00013971  00000-0  14538-2 0  9997
2 35594  73.8077   6.1176 0026370 106.3081 254.1003 14.89619954889239
Epoch: 2026-01-31T07:56Z
TLE epoch observation values (Epoch: 2026-01-31T07:56:53.243Z)
Latitude
0.00005°
Longitude
116.33907°
Altitude
606.871 km
Speed
7.553 km/s
True Right ascension
00h 24m 28s
True Declination
0° 00' 00"
Sunlit
Object was in daylight at epoch
Visualization orbit readout
Latitude
Unknown
Longitude
Unknown
Altitude
Unknown
Speed
Unknown
Apparent Right ascension
Unknown
Apparent Declination
Unknown
Sunlit
N/A
Visualization observer readout
Local Sidereal Time
04:15:27
Azimuth
Unknown
Elevation
Unknown
Doppler factor
Unknown
Orbital elements
Apogee altitude
615.1 km
Perigee altitude
578.315 km
Semi-major axis
6,974.844 km
Eccentricity
0.00264
Inclination
73.8077°
RAAN
6.1176°
Arg. of periapsis
106.3081°
True anomaly
253.80995°
Mean anomaly
254.1003°
Eccentric anomaly
253.9551°
Mean motion
3.72599 °/min
Orbital period
96.62 mins
BSTAR
0.0014538
Loading maneuver chart data...
Computing Atmospheric mass density...

Documentation

Showing up to 5 results
|